Regional Weather Roundup
Issued by NWS

Home | Current Version | Previous Version | Text Only | Print | Product List | Glossary On
Versions: 1 2 3 4 5 6 7 8 9 10 11 12 13 14 15 16 17 18 19 20 21 22 23 24 25 26 27 28 29 30 31 32 33 34 35 36 37 38 39 40 41 42 43 44 45 46 47 48 49 50
000
ASCA44 KEWX 200220
RWRMX

LATIN AMERICA AND CARIBBEAN REGIONAL WEATHER ROUNDUP
NATIONAL WEATHER SERVICE AUSTIN/SAN ANTONIO TX
900 PM CDT FRI SEP 19 2014

NOTE: "FAIR" INDICATED FEW OR NO CLOUDS BELOW 12,000 FEET WITH NO
SIGNIFICANT WEATHER AND/OR OBSTRUCTIONS TO VISIBILITY.

BAJA CALIFORNIA

CITY           SKY/WX    TMP DP  RH WIND       PRES   REMARKS
LORETO           N/A    N/A N/A N/A MISG        N/A
LA PAZ         PTCLDY    82  72  69 S7        29.78
MEXICALI       CLEAR     95  48  20 E3        29.69  HX  91
S.J. DEL CABO  MOCLDY    82  75  78 CALM      29.80R
TIJUANA        CLEAR     70  59  68 W10       29.89R

NORTHWESTERN MEXICO

CITY           SKY/WX    TMP DP  RH WIND       PRES   REMARKS
CULIACAN       CLOUDY    79  77  94 CALM      29.81
DURANGO        MOCLDY    72  55  56 SW8       30.10R
GUAYMAS        CLEAR     88  79  74 SW9       29.70  HX 102
HERMOSILLO     CLEAR     88  75  66 SW9       29.78  HX  97
CD. JUAREZ     CLEAR     77  64  65 CALM      29.91
LOS MOCHIS     MOCLDY    84  73  70 MISG      29.77S HX  91
OBREGON        CLEAR     88  70  55 SW6       29.74  HX  92

NORTHEASTERN MEXICO

CITY           SKY/WX    TMP DP  RH WIND       PRES   REMARKS
CHIHUAHUA      PTCLDY    75  59  57 N6        29.98
MATAMOROS      CLOUDY    84  81  89 E8        29.83  HX  98
MONTERREY      MOCLDY    82  72  69 SE5       29.83R
NUEVO LAREDO   MOCLDY    88  75  66 SE9       29.81  HX  97
REYNOSA        CLOUDY    82  73  74 SE12      29.82
SALTILLO       PTCLDY    72  63  73 N12       30.06R
CD. VICTORIA   MOCLDY    81  77  89 W5        29.84

WESTERN MEXICO

CITY           SKY/WX    TMP DP  RH WIND       PRES   REMARKS
AGUASCALIENTES CLEAR     64  54  68 SW5       30.19
COLIMA         CLEAR     72  70  94 SW7       30.00R
DEL BAJIO      PTCLDY    70  57  64 S7        30.21R
GUADALAJARA    PTCLDY    68  54  60 S7        30.12
MAZATLAN       CLOUDY    79  72  78 S8        29.81R
P. VALLARTA    PTCLDY    82  72  69 NE3       29.77R
ZACATECAS      MOCLDY    66  48  52 SW12      30.20R

CENTRAL MEXICO

CITY           SKY/WX    TMP DP  RH WIND       PRES   REMARKS
CUERNAVACA     MOCLDY   N/A N/A N/A CALM      30.05R
MEXICO CITY    CLOUDY    61  52  72 N9        30.34
MORELIA        PTCLDY    66  59  77 SW10      30.17
POZA RICA      CLEAR     81  75  83 E7        29.82S
PUEBLA         RAIN      63  61  94 N5        30.35S
QUERETARO      MOCLDY    70  55  60 W7        30.18R
S. LUIS POTOSI MOCLDY    73  57  56 SE6       30.12R
TAMPICO        PTCLDY    84  77  79 SE12      29.81R HX  94
TOLUCA         MOCLDY    57  48  72 CALM      30.38R

SOUTHERN MEXICO

CITY           SKY/WX    TMP DP  RH WIND       PRES   REMARKS
ACAPULCO       MOCLDY    82  77  83 W12       29.81R HX  91
OAXACA         TSTM      61  59  94 NE6       30.18R
VERACRUZ       PTCLDY    82  77  83 NE5       29.81R HX  91
ZIHUATANEJO    PTCLDY    82  75  78 NW6       29.85R

YUCATAN PENINSULA

CITY           SKY/WX    TMP DP  RH WIND       PRES   REMARKS
CAMPECHE       CLEAR     86  81  84 N12       29.82R HX 102
CANCUN         PTCLDY    81  77  89 SE5       29.91R
CHETUMAL       MOCLDY    82  75  78 SE12      29.86R
CD. DEL CARMEN PTCLDY    86  79  79 NE13      29.81  HX  99
COZUMEL        PTCLDY    75  73  94 SE3       29.91R
MERIDA         PTCLDY    82  72  69 CALM      29.87R
TAPACHULA      MOCLDY    79  77  94 NE8       29.93R
TUX. GUTIERREZ CLOUDY    79  72  78 CALM      29.89R
VILLAHERMOSA   MOCLDY    81  73  78 CALM      29.84R

CENTRAL AMERICA

CITY           SKY/WX    TMP DP  RH WIND       PRES   REMARKS
MANAGUA        PTCLDY    79  75  89 S5        29.86R

CARIBBEAN

CITY           SKY/WX    TMP DP  RH WIND       PRES   REMARKS
ARUBA          PTCLDY    84  77  79 E13       29.86R HX  94
KINGSTON       PTCLDY    84  77  79 N8        29.92R HX  94
NASSAU         PTCLDY    79  75  89 CALM      29.98R
SAN JUAN       PTCLDY    81  79  94 E5        30.00R
SANTO DOMINGO  PTCLDY    79  75  89 NE5       29.97R THUNDER

$$



USA.gov is the U.S. government's official web portal to all federal, state and local government web resources and services.